Weather in Resistencia

Argentina     27°27′43″S   58°58′58″W
temp.,
°C
wind,
m/s
gust,
m/s
humid.,
%
clouds,
%
prec.,
mm/h
press.,
hPa
HPBL,
m
26 october, tue
tue2600:00+18ene22540 0.0 101727
03:00+17nne23600 0.0 101651
06:00+16nne23660 0.0 101748
09:00+23ne24490 0.0 1018322
12:00+29ene33300 0.0 10171355
15:00+31ene45240 0.0 10141838
18:00+28e36370 0.0 1013414
21:00+23e39530 0.0 1014165
27 october, wed
wed2700:00+21ene39600 0.0 1015191
03:00+20ene38690 0.0 1015172
06:00+19ene27740 0.0 1016140
09:00+26ene48530 0.0 1017427
12:00+32ene46335 0.0 10162062
15:00+34ene46260 0.0 10142472
18:00+31ene3735100 0.0 1013914
21:00+26e31249100 0.0 1015299
28 october, thu
thu2800:00+24e31054100 0.0 1016254
03:00+22ene39621 0.0 1015197
06:00+21ene29680 0.0 1016183
09:00+28ene47550 0.0 1017483
12:00+33ne33360 0.0 10162211
15:00+35e33280 0.0 10132845
18:00+33ese24350 0.0 1012887
21:00+28e3846100 0.0 1013216
29 october, fri
fri2900:00+27ene412602 0.0 1013545
03:00+24ne31074100 0.0 1012374
06:00+23ene298258 0.0 1013279
09:00+28ne476290 0.0 1014722
12:00+32ne3447100 0.0 10131483
15:00+34ene3240100 0.0 10102154
18:00+30ese2455100 0.0 1007230
21:00+28ese4115899 0.1 1009497
30 october, sat
sat3000:00+24ese3880100 1.0 1009247
03:00+22nnw2490100 2.9 1009112
06:00+21ene1196100 5.1 101069
09:00+23sw1289100 5.1 1012266
12:00+23s2488100 3.6 1012138
15:00+22sse4893100 5.8 1011314
18:00+22sse389573 0.3 1010318
21:00+20sse259728 0.4 1011143